OE3FJB-25 Weather Reports


time (UTC)temp
C
wind
direction
speed
KPH
gust
KPH
rain 1hr
cm
rain 24hr
cm
rain mn
cm
humidity
%
barometer
mb
20260504044553 14 0.0 0.0 0.00 0.00 0.00 99 1017.3
20260504043554 14 0.0 0.0 0.00 0.00 0.00 99 1017.2
20260504042556 14 0.0 0.0 0.00 0.00 0.00 99 1017.1
20260504041557 15 0.0 0.0 0.00 0.00 0.00 99 1017.1
20260504040558 14 0.0 0.0 0.00 0.00 0.00 99 1017.0
20260504035600 14 0.0 0.0 0.00 0.00 0.00 99 1016.9
20260504034601 14 0.0 0.0 0.00 0.00 0.00 99 1017.0
20260504033602 13 0.0 0.0 0.00 0.00 0.00 99 1017.0
20260504032604 13 0.0 0.0 0.00 0.00 0.00 99 1017.0
20260504031605 13 0.0 0.0 0.00 0.00 0.00 99 1017.0
20260504030606 13 0.0 0.0 0.00 0.00 0.00 99 1017.0
20260504025608 13 0.0 0.0 0.00 0.00 0.00 99 1017.1
20260504024609 13 0.0 0.0 0.00 0.00 0.00 99 1017.1
20260504023611 14 0.0 0.0 0.00 0.00 0.00 99 1017.0
20260504022612 14 0.0 0.0 0.00 0.00 0.00 99 1017.1
20260504021613 13 0.0 0.0 0.00 0.00 0.00 99 1017.0
20260504020615 13 0.0 0.0 0.00 0.00 0.00 99 1017.0
20260504015616 12 0.0 0.0 0.00 0.00 0.00 99 1016.9
20260504014617 12 0.0 0.0 0.00 0.00 0.00 99 1016.9
20260504013619 12 0.0 0.0 0.00 0.00 0.00 99 1016.7
20260504012620 12 0.0 0.0 0.00 0.00 0.00 99 1016.6
20260504011621 12 0.0 0.0 0.00 0.00 0.00 99 1016.7
20260504010623 12 0.0 0.0 0.00 0.00 0.00 99 1016.7
20260504005624 12 0.0 0.0 0.00 0.00 0.00 99 1016.7
20260504004625 12 0.0 0.0 0.00 0.00 0.00 99 1016.7
20260504003627 12 0.0 0.0 0.00 0.00 0.00 99 1016.7
20260504002628 12 0.0 0.0 0.00 0.00 0.00 99 1016.7
20260504001629 12 0.0 0.0 0.00 0.00 0.00 99 1016.6
20260504000631 11 0.0 0.0 0.00 0.00 0.00 99 1016.7
20260503235632 11 0.0 0.0 0.00 0.00 0.00 99 1016.7
20260503234634 11 0.0 0.0 0.00 0.00 0.00 99 1016.7
20260503233635 11 0.0 0.0 0.00 0.00 0.00 99 1016.7
20260503232636 11 0.0 0.0 0.00 0.00 0.00 99 1016.7
20260503231637 11 0.0 0.0 0.00 0.00 0.00 99 1016.7
20260503230639 11 0.0 0.0 0.00 0.00 0.00 99 1016.7
20260503225639 11 0.0 0.0 0.00 0.00 0.00 99 1016.7
20260503224640 11 0.0 0.0 0.00 0.00 0.00 99 1016.8
20260503223642 12 0.0 0.0 0.00 0.00 0.00 99 1016.8
20260503222643 12 0.0 0.0 0.00 0.00 0.00 99 1016.8
20260503221644 12 0.0 0.0 0.00 0.00 0.00 99 1016.8
20260503220646 12 0.0 0.0 0.00 0.00 0.00 99 1016.8
20260503215647 13 0.0 0.0 0.00 0.00 0.00 99 1016.8
20260503214648 13 0.0 0.0 0.00 0.00 0.00 99 1016.8
20260503213650 13 0.0 0.0 0.00 0.00 0.00 99 1016.8
20260503212651 13 0.0 0.0 0.00 0.00 0.00 99 1016.8
20260503211652 13 0.0 0.0 0.00 0.00 0.00 99 1016.8
20260503210654 13 0.0 0.0 0.00 0.00 0.00 99 1016.9
20260503205655 13 0.0 0.0 0.00 0.00 0.00 99 1016.9
20260503204656 13 0.0 0.0 0.00 0.00 0.00 99 1017.0
20260503203658 13 0.0 0.0 0.00 0.00 0.00 99 1017.1
20260503202659 13 0.0 0.0 0.00 0.00 0.00 99 1017.2
20260503201701 13 0.0 0.0 0.00 0.00 0.00 99 1017.2
20260503200702 13 0.0 0.0 0.00 0.00 0.00 99 1017.3
20260503195703 14 0.0 0.0 0.00 0.00 0.00 99 1017.4
20260503194705 14 0.0 0.0 0.00 0.00 0.00 99 1017.5
20260503193706 15 0.0 0.0 0.00 0.00 0.00 99 1017.5
20260503192707 15 0.0 0.0 0.00 0.00 0.00 99 1017.5
20260503191709 15 0.0 0.0 0.00 0.00 0.00 98 1017.5
20260503190710 16 0.0 0.0 0.00 0.00 0.00 95 1017.5
20260503185712 16 0.0 0.0 0.00 0.00 0.00 91 1017.5
20260503184713 16 0.0 0.0 0.00 0.00 0.00 87 1017.6
20260503183714 16 0.0 0.0 0.00 0.00 0.00 84 1017.5
20260503182716 17 0.0 0.0 0.00 0.00 0.00 81 1017.4
20260503181717 17 0.0 0.0 0.00 0.00 0.00 78 1017.4
20260503180718 17 0.0 0.0 0.00 0.00 0.00 75 1017.4
20260503175720 17 0.0 0.0 0.00 0.00 0.00 73 1017.4
20260503174721 17 0.0 0.0 0.00 0.00 0.00 70 1017.3
20260503173723 18 0.0 0.0 0.00 0.00 0.00 66 1017.4
20260503172724 18 0.0 0.0 0.00 0.00 0.00 63 1017.5
20260503171725 18 0.0 0.0 0.00 0.00 0.00 59 1017.4
20260503170727 19 0.0 0.0 0.00 0.00 0.00 55 1017.5
20260503150741 21 0.0 0.0 0.00 0.00 0.00 38 1017.7
20260503130759 22 0.0 0.0 0.00 0.00 0.00 36 1018.9
20260503110814 22 0.0 0.0 0.00 0.00 0.00 35 1020.1
20260503080839 17 0.0 0.0 0.00 0.00 0.00 77 1021.0
20260503072844 17 0.0 0.0 0.00 0.00 0.00 83 1020.8
20260503071846 17 0.0 0.0 0.00 0.00 0.00 79 1020.8
20260503070847 17 0.0 0.0 0.00 0.00 0.00 89 1020.8
20260503053858 12 0.0 0.0 0.00 0.00 0.00 99 1020.5
20260503052859 11 0.0 0.0 0.00 0.00 0.00 99 1020.4
20260503051900 11 0.0 0.0 0.00 0.00 0.00 99 1020.4
20260503050902 11 0.0 0.0 0.00 0.00 0.00 99 1020.4
20260503045904 11 0.0 0.0 0.00 0.00 0.00 99 1020.4